TimeCDT,TemperatureF,Dew PointF,Humidity,Sea Level PressureIn,VisibilityMPH,Wind Direction,Wind SpeedMPH,Gust SpeedMPH,PrecipitationIn,Events,Conditions,WindDirDegrees,DateUTC
12:15 AM,79.7,73.4,81,30.11,10.0,South,5.8,-,N/A,,Clear,190,2013-09-11 05:15:00
12:35 AM,79.7,73.4,81,30.10,10.0,SSW,5.8,-,N/A,,Clear,200,2013-09-11 05:35:00
12:55 AM,78.8,73.4,83,30.10,7.0,South,4.6,-,N/A,,Clear,180,2013-09-11 05:55:00
1:15 AM,77.9,73.4,86,30.10,7.0,Calm,Calm,-,N/A,,Clear,0,2013-09-11 06:15:00
1:55 AM,77.9,73.6,86,30.10,7.0,SSW,5.8,-,N/A,,Clear,210,2013-09-11 06:55:00
2:15 AM,78.3,73.4,85,30.10,7.0,South,5.8,-,N/A,,Unknown,180,2013-09-11 07:15:00
2:35 AM,77.2,72.9,86,30.10,7.0,SSW,4.6,-,N/A,,Clear,210,2013-09-11 07:35:00
2:55 AM,76.6,72.1,86,30.10,7.0,South,4.6,-,N/A,,Unknown,180,2013-09-11 07:55:00
3:15 AM,76.1,72.3,88,30.10,7.0,SSW,4.6,-,N/A,,Unknown,200,2013-09-11 08:15:00
3:35 AM,76.8,72.3,86,30.10,7.0,South,5.8,-,N/A,,Unknown,190,2013-09-11 08:35:00
3:55 AM,76.6,72.0,85,30.11,7.0,South,5.8,-,N/A,,Unknown,190,2013-09-11 08:55:00
4:15 AM,75.4,71.6,88,30.11,7.0,South,4.6,-,N/A,,Unknown,180,2013-09-11 09:15:00
4:35 AM,74.8,71.2,88,30.12,7.0,Calm,Calm,-,N/A,,Unknown,0,2013-09-11 09:35:00
4:55 AM,74.3,70.9,89,30.12,7.0,South,4.6,-,N/A,,Unknown,180,2013-09-11 09:55:00
5:15 AM,74.3,70.7,88,30.12,5.0,Calm,Calm,-,N/A,,Mist,0,2013-09-11 10:15:00
5:35 AM,74.3,70.7,88,30.12,7.0,Calm,Calm,-,N/A,,Unknown,0,2013-09-11 10:35:00
5:55 AM,73.6,70.2,89,30.13,5.0,SSE,3.5,-,N/A,,Mist,160,2013-09-11 10:55:00
6:15 AM,72.5,69.4,90,30.13,5.0,Calm,Calm,-,N/A,,Mist,0,2013-09-11 11:15:00
6:35 AM,72.0,68.9,90,30.14,5.0,Calm,Calm,-,N/A,,Mist,0,2013-09-11 11:35:00
6:55 AM,71.1,68.4,91,30.14,4.0,Calm,Calm,-,N/A,,Mist,0,2013-09-11 11:55:00
7:15 AM,72.0,69.6,92,30.15,3.0,SSE,3.5,-,N/A,,Mist,160,2013-09-11 12:15:00
7:35 AM,75.0,72.0,90,30.16,4.0,SSE,4.6,-,N/A,,Mist,160,2013-09-11 12:35:00
7:55 AM,76.8,72.7,87,30.16,5.0,South,3.5,-,N/A,,Mist,180,2013-09-11 12:55:00
8:15 AM,77.9,72.5,83,30.15,7.0,South,3.5,-,N/A,,Unknown,180,2013-09-11 13:15:00
8:35 AM,79.9,72.5,78,30.15,7.0,Calm,Calm,-,N/A,,Unknown,0,2013-09-11 13:35:00
8:55 AM,81.5,73.0,75,30.15,7.0,South,3.5,-,N/A,,Unknown,170,2013-09-11 13:55:00
9:15 AM,83.3,72.5,70,30.16,10.0,Calm,Calm,-,N/A,,Unknown,0,2013-09-11 14:15:00
9:35 AM,84.9,71.6,64,30.15,10.0,WSW,3.5,-,N/A,,Clear,250,2013-09-11 14:35:00
9:42 AM,86.0,71.6,62,30.15,10.0,Calm,Calm,-,N/A,,Clear,0,2013-09-11 14:42:00
9:55 AM,86.2,70.5,59,30.15,10.0,Calm,Calm,-,N/A,,Clear,0,2013-09-11 14:55:00
10:02 AM,87.8,71.6,58,30.15,10.0,WSW,4.6,-,N/A,,Clear,250,2013-09-11 15:02:00
10:15 AM,88.0,70.9,57,30.15,10.0,WSW,4.6,-,N/A,,Clear,250,2013-09-11 15:15:00
10:22 AM,87.8,69.8,55,30.15,10.0,West,3.5,-,N/A,,Clear,280,2013-09-11 15:22:00
10:35 AM,89.4,69.3,51,30.15,10.0,Calm,Calm,-,N/A,,Clear,0,2013-09-11 15:35:00
10:55 AM,90.1,69.3,50,30.14,10.0,West,4.6,-,N/A,,Clear,260,2013-09-11 15:55:00
11:02 AM,89.6,68.0,49,30.14,10.0,WSW,4.6,-,N/A,,Clear,240,2013-09-11 16:02:00
11:15 AM,91.4,67.8,46,30.14,10.0,West,4.6,-,N/A,,Unknown,280,2013-09-11 16:15:00
11:22 AM,91.4,68.0,46,30.14,10.0,WSW,5.8,-,N/A,,Unknown,250,2013-09-11 16:22:00
11:35 AM,92.3,67.1,43,30.14,10.0,West,5.8,-,N/A,,Unknown,270,2013-09-11 16:35:00
11:42 AM,93.2,68.0,44,30.14,10.0,West,5.8,-,N/A,,Unknown,270,2013-09-11 16:42:00
11:55 AM,93.2,66.9,42,30.13,10.0,Calm,Calm,-,N/A,,Unknown,0,2013-09-11 16:55:00
12:02 PM,93.2,66.2,41,30.13,10.0,Calm,Calm,-,N/A,,Unknown,0,2013-09-11 17:02:00
12:15 PM,94.1,66.4,40,30.13,10.0,WNW,3.5,-,N/A,,Unknown,290,2013-09-11 17:15:00
12:35 PM,96.1,64.9,36,30.13,10.0,West,4.6,-,N/A,,Unknown,280,2013-09-11 17:35:00
1:15 PM,97.2,61.5,31,30.12,-9999.0,West,5.8,-,N/A,,Unknown,270,2013-09-11 18:15:00
1:35 PM,97.7,62.6,31,30.11,-9999.0,West,5.8,-,N/A,,Unknown,270,2013-09-11 18:35:00
1:55 PM,95.7,62.6,33,-9999,-9999.0,North,-9999.0,-,N/A,,Unknown,0,2013-09-11 18:55:00
2:15 PM,97.7,62.1,31,30.10,10.0,WSW,5.8,-,N/A,,Unknown,250,2013-09-11 19:15:00
2:35 PM,97.7,61.7,30,30.09,-9999.0,NNW,3.5,-,N/A,,Unknown,330,2013-09-11 19:35:00
2:55 PM,97.7,62.2,31,30.08,-9999.0,NW,3.5,-,N/A,,Unknown,310,2013-09-11 19:55:00
3:15 PM,-9999,-9999,N/A,-9999,-9999.0,North,-9999.0,-,N/A,,Unknown,0,2013-09-11 20:15:00
3:35 PM,98.1,62.2,31,30.07,-9999.0,West,3.5,-,N/A,,Unknown,260,2013-09-11 20:35:00
3:55 PM,-9999,-9999,N/A,30.06,-9999.0,North,-9999.0,-,N/A,,Unknown,0,2013-09-11 20:55:00
4:15 PM,-9999,-9999,N/A,30.06,-9999.0,North,-9999.0,-,N/A,,Unknown,0,2013-09-11 21:15:00
4:35 PM,97.0,62.1,31,30.06,-9999.0,West,3.5,-,N/A,,Unknown,270,2013-09-11 21:35:00
4:55 PM,96.3,62.8,33,30.06,-9999.0,Calm,Calm,-,N/A,,Unknown,0,2013-09-11 21:55:00
5:35 PM,95.9,62.8,33,30.05,-9999.0,Calm,Calm,-,N/A,,Unknown,0,2013-09-11 22:35:00
5:55 PM,95.0,63.9,36,30.05,10.0,Calm,Calm,-,N/A,,Unknown,0,2013-09-11 22:55:00
6:15 PM,94.3,66.4,40,30.05,10.0,Calm,Calm,-,N/A,,Unknown,0,2013-09-11 23:15:00
6:35 PM,92.1,68.5,46,30.05,10.0,Calm,Calm,-,N/A,,Unknown,0,2013-09-11 23:35:00
6:55 PM,88.5,70.3,55,30.05,10.0,Calm,Calm,-,N/A,,Unknown,0,2013-09-11 23:55:00
7:15 PM,85.3,70.7,62,30.05,10.0,SSE,5.8,-,N/A,,Unknown,150,2013-09-12 00:15:00
7:35 PM,83.1,70.2,65,30.06,10.0,South,4.6,-,N/A,,Unknown,190,2013-09-12 00:35:00
7:55 PM,82.2,70.0,66,30.07,10.0,SSE,4.6,-,N/A,,Unknown,160,2013-09-12 00:55:00
8:15 PM,81.0,70.0,69,30.07,10.0,South,4.6,-,N/A,,Unknown,170,2013-09-12 01:15:00
8:35 PM,80.4,70.2,71,30.08,10.0,South,5.8,-,N/A,,Clear,170,2013-09-12 01:35:00
8:55 PM,81.9,70.3,68,30.07,10.0,South,5.8,-,N/A,,Clear,170,2013-09-12 01:55:00
9:15 PM,81.5,70.7,70,30.07,10.0,South,5.8,-,N/A,,Clear,170,2013-09-12 02:15:00
9:35 PM,81.3,70.7,70,30.07,10.0,South,4.6,-,N/A,,Clear,180,2013-09-12 02:35:00
9:55 PM,81.1,70.9,71,30.07,10.0,South,8.1,-,N/A,,Clear,190,2013-09-12 02:55:00
10:15 PM,81.7,71.1,70,30.06,10.0,SSW,8.1,-,N/A,,Clear,200,2013-09-12 03:15:00
10:35 PM,80.6,71.6,74,30.06,10.0,South,6.9,-,N/A,,Clear,190,2013-09-12 03:35:00
10:55 PM,80.2,71.8,75,30.06,10.0,SSW,6.9,-,N/A,,Clear,200,2013-09-12 03:55:00
11:15 PM,80.4,72.0,75,30.06,10.0,SSW,8.1,-,N/A,,Clear,210,2013-09-12 04:15:00
11:35 PM,80.1,72.0,76,30.05,10.0,SSW,6.9,-,N/A,,Unknown,200,2013-09-12 04:35:00
11:55 PM,79.7,72.0,77,30.05,10.0,SSW,5.8,-,N/A,,Unknown,200,2013-09-12 04:55:00